Perryton, TX

7:54 AM CDT on June 24, 2017 (GMT -0500)
Perryton Ochiltree County

Weather History for KPYX - January, 2014

Change the Weather History Date:

Saturday, January 25, 2014

  Actual Average Record
Temperature  
Mean Temperature 46 °F -  
Max Temperature 61 °F 49 °F 70 °F (1981)
Min Temperature 30 °F 20 °F 5 °F (1969)
Degree Days  
Heating Degree Days 20    
Moisture  
Dew Point 23 °F    
Average Humidity 45    
Maximum Humidity 65    
Minimum Humidity 26    
Precipitation  
Precipitation 0.00 in - - ()
Sea Level Pressure  
Sea Level Pressure 30.08 in    
Wind  
Wind Speed 11 mph (WNW)    
Max Wind Speed 16 mph    
Max Gust Speed 25 mph    
Visibility 10 miles    
Events      
Averages and records for this station are not official NWS values.
T = Trace of Precipitation, MM = Missing Value Source: NWS Daily Summary

Daily Weather History Graph

Daily Weather History Graph

Search for Another Location

Airport or City:

Trip Planner

Search our weather history database for the weather conditions in past years. The results will help you decide how hot, cold, wet, or windy it might be!

Date:

Astronomy

Jan. 25, 2014 Rise Set
Actual Time 7:49 AM CST 6:01 PM CST
Civil Twilight 7:21 AM CST 6:29 PM CST
Nautical Twilight 6:50 AM CST 7:00 PM CST
Astronomical Twilight 6:20 AM CST 7:31 PM CST
Moon 2:24 AM CST (1/25) 1:03 PM CST (1/25)
Length of Visible Light 11h 07m
Length of Day
10h 12m
Waning Crescent, 34% of the Moon is Illuminated
Jan 25
Waning Crescent
Jan 30
New
Feb 6
First Quarter
Feb 14
Full
Feb 22
Last Quarter

Hourly Weather History & Observations

Time (CST) Temp. Windchill Dew Point Humidity Pressure Visibility Wind Dir Wind Speed Gust Speed Precip Events Conditions
12:15 AM 36.7 °F 27.6 °F 18.3 °F 47% 30.12 in 10.0 mi West 15.0 mph - N/A   Clear
12:35 AM 36.7 °F 28.0 °F 18.5 °F 48% 30.12 in 10.0 mi West 13.8 mph - N/A   Clear
12:55 AM 38.3 °F 29.3 °F 18.5 °F 45% 30.11 in 10.0 mi West 16.1 mph - N/A   Clear
1:15 AM 40.1 °F 31.6 °F 18.5 °F 42% 30.11 in 10.0 mi West 16.1 mph - N/A   Clear
1:35 AM 39.4 °F 31.4 °F 18.5 °F 43% 30.10 in 10.0 mi West 13.8 mph - N/A   Clear
1:55 AM 39.2 °F 31.6 °F 19.0 °F 44% 30.10 in 10.0 mi West 12.7 mph - N/A   Clear
2:15 AM 38.7 °F 30.9 °F 19.6 °F 46% 30.10 in 10.0 mi West 12.7 mph - N/A   Clear
2:35 AM 37.8 °F 29.8 °F 19.4 °F 48% 30.11 in 10.0 mi West 12.7 mph - N/A   Clear
2:55 AM 36.1 °F 27.7 °F 19.8 °F 51% 30.11 in 10.0 mi West 12.7 mph - N/A   Clear
3:15 AM 35.2 °F 27.1 °F 19.6 °F 53% 30.11 in 10.0 mi West 11.5 mph - N/A   Clear
3:35 AM 33.8 °F 25.8 °F 19.6 °F 56% 30.11 in 10.0 mi West 10.4 mph - N/A   Clear
3:55 AM 32.4 °F 26.0 °F 19.2 °F 58% 30.11 in 10.0 mi West 6.9 mph - N/A   Clear
4:15 AM 31.3 °F 21.6 °F 18.3 °F 59% 30.14 in 10.0 mi NNW 12.7 mph - N/A   Clear
4:35 AM 31.1 °F 24.5 °F 19.0 °F 61% 30.14 in 10.0 mi NW 6.9 mph - N/A   Clear
4:55 AM 30.9 °F 23.5 °F 18.3 °F 60% 30.12 in 10.0 mi WNW 8.1 mph - N/A   Clear
5:15 AM 30.4 °F 22.2 °F 19.0 °F 63% 30.13 in 10.0 mi WNW 9.2 mph - N/A   Clear
5:35 AM 31.3 °F 23.3 °F 20.1 °F 63% 30.13 in 10.0 mi WNW 9.2 mph - N/A   Clear
5:55 AM 32.7 °F 24.5 °F 20.3 °F 60% 30.13 in 10.0 mi WNW 10.4 mph - N/A   Clear
6:15 AM 32.2 °F 23.8 °F 19.8 °F 60% 30.14 in 10.0 mi WNW 10.4 mph - N/A   Clear
6:35 AM 33.3 °F 25.7 °F 20.1 °F 59% 30.13 in 10.0 mi WNW 9.2 mph - N/A   Clear
6:55 AM 32.2 °F 26.7 °F 19.4 °F 59% 30.14 in 10.0 mi West 5.8 mph - N/A   Clear
7:15 AM 30.6 °F 23.1 °F 19.6 °F 64% 30.14 in 10.0 mi WNW 8.1 mph - N/A   Clear
7:35 AM 32.0 °F 23.6 °F 19.9 °F 61% 30.14 in 10.0 mi WNW 10.4 mph - N/A   Clear
7:55 AM 30.7 °F 24.1 °F 19.4 °F 63% 30.14 in 10.0 mi NW 6.9 mph - N/A   Clear
8:15 AM 30.6 °F 23.1 °F 20.1 °F 65% 30.15 in 10.0 mi West 8.1 mph - N/A   Clear
8:35 AM 33.3 °F 26.4 °F 21.7 °F 63% 30.15 in 10.0 mi West 8.1 mph - N/A   Clear
8:55 AM 37.9 °F 34.4 °F 23.0 °F 55% 30.15 in 10.0 mi West 4.6 mph - N/A   Clear
9:15 AM 43.0 °F 38.8 °F 24.1 °F 47% 30.15 in 10.0 mi NNW 6.9 mph - N/A   Clear
9:35 AM 47.5 °F - 25.0 °F 41% 30.15 in 10.0 mi NNW 8.1 mph - N/A   Clear
9:55 AM 50.7 °F - 25.9 °F 38% 30.16 in 10.0 mi North 9.2 mph - N/A   Clear
10:15 AM 52.9 °F - 25.2 °F 34% 30.17 in 10.0 mi NNW 9.2 mph - N/A   Clear
10:35 AM 55.0 °F - 24.6 °F 31% 30.17 in 10.0 mi NNW 9.2 mph - N/A   Clear
10:55 AM 55.6 °F - 24.4 °F 30% 30.18 in 10.0 mi NNW 11.5 mph - N/A   Clear
11:15 AM 56.5 °F - 24.8 °F 30% 30.17 in 10.0 mi North 11.5 mph 18.4 mph N/A   Clear
11:35 AM 58.1 °F - 25.5 °F 29% 30.17 in 10.0 mi North 15.0 mph - N/A   Clear
11:55 AM 58.5 °F - 25.7 °F 29% 30.17 in 10.0 mi North 13.8 mph 21.9 mph N/A   Clear
12:15 PM 59.0 °F - 25.9 °F 28% 30.16 in 10.0 mi North 15.0 mph 21.9 mph N/A   Clear
12:35 PM 60.1 °F - 26.1 °F 27% 30.14 in 10.0 mi North 16.1 mph 24.2 mph N/A   Clear
12:55 PM 60.3 °F - 26.2 °F 27% 30.12 in 10.0 mi North 11.5 mph 25.3 mph N/A   Clear
1:15 PM 60.6 °F - 26.4 °F 27% 30.11 in 10.0 mi NNE 9.2 mph 16.1 mph N/A   Clear
1:35 PM 61.3 °F - 26.8 °F 27% 30.10 in 10.0 mi North 11.5 mph 18.4 mph N/A   Clear
1:55 PM 61.3 °F - 26.6 °F 27% 30.09 in 10.0 mi North 12.7 mph - N/A   Clear
2:15 PM 61.9 °F - 26.6 °F 26% 30.08 in 10.0 mi North 12.7 mph 17.3 mph N/A   Clear
2:35 PM 61.7 °F - 26.4 °F 26% 30.07 in 10.0 mi North 11.5 mph 18.4 mph N/A   Clear
2:55 PM 61.7 °F - 26.1 °F 26% 30.06 in 10.0 mi North 11.5 mph 17.3 mph N/A   Clear
3:15 PM 61.7 °F - 26.2 °F 26% 30.06 in 10.0 mi NNW 10.4 mph - N/A   Clear
3:35 PM 61.9 °F - 26.4 °F 26% 30.05 in 10.0 mi NNW 10.4 mph - N/A   Clear
3:55 PM 61.7 °F - 26.2 °F 26% 30.05 in 10.0 mi NNW 6.9 mph - N/A   Clear
4:15 PM 61.0 °F - 26.1 °F 26% 30.04 in 10.0 mi Calm Calm - N/A   Clear
4:35 PM 60.8 °F - 26.1 °F 27% 30.03 in 10.0 mi North 3.5 mph - N/A   Clear
4:55 PM 60.6 °F - 26.2 °F 27% 30.03 in 10.0 mi Calm Calm - N/A   Clear
5:15 PM 59.9 °F - 26.2 °F 28% 30.02 in 10.0 mi Calm Calm - N/A   Clear
5:35 PM 59.0 °F - 25.9 °F 28% 30.01 in 10.0 mi Calm Calm - N/A   Clear
5:55 PM 56.7 °F - 25.7 °F 30% 30.01 in 10.0 mi South 3.5 mph - N/A   Clear
6:15 PM 53.2 °F - 25.0 °F 33% 30.00 in 10.0 mi South 4.6 mph - N/A   Clear
6:35 PM 48.7 °F - 23.9 °F 38% 30.00 in 10.0 mi South 5.8 mph - N/A   Clear
6:55 PM 46.0 °F 42.5 °F 23.4 °F 41% 30.00 in 10.0 mi South 6.9 mph - N/A   Clear
7:15 PM 43.0 °F 38.8 °F 21.9 °F 43% 30.00 in 10.0 mi South 6.9 mph - N/A   Clear
7:35 PM 40.3 °F 35.5 °F 21.6 °F 47% 29.99 in 10.0 mi South 6.9 mph - N/A   Clear
7:55 PM 40.5 °F 35.8 °F 21.6 °F 47% 29.98 in 10.0 mi South 6.9 mph - N/A   Clear
8:15 PM 39.4 °F 34.5 °F 21.4 °F 49% 29.98 in 10.0 mi South 6.9 mph - N/A   Clear
9:15 PM 35.6 °F 29.2 °F 21.4 °F 56% 29.96 in 10.0 mi South 8.1 mph - N/A   Clear
9:35 PM 35.8 °F 28.8 °F 21.9 °F 57% 29.94 in 10.0 mi South 9.2 mph - N/A   Clear
9:55 PM 35.1 °F 28.6 °F 21.7 °F 58% 29.94 in 10.0 mi South 8.1 mph - N/A   Clear
10:15 PM 34.0 °F 26.0 °F 21.4 °F 60% 29.93 in 10.0 mi South 10.4 mph - N/A   Clear
10:35 PM 34.2 °F 26.8 °F 21.7 °F 60% 29.93 in 10.0 mi South 9.2 mph - N/A   Clear
10:55 PM 34.7 °F 26.9 °F 22.1 °F 60% 29.92 in 10.0 mi South 10.4 mph - N/A   Clear
11:15 PM 35.1 °F 28.6 °F 22.6 °F 61% 29.92 in 10.0 mi South 8.1 mph - N/A   Clear
11:35 PM 32.2 °F 24.4 °F 21.4 °F 64% 29.91 in 10.0 mi South 9.2 mph - N/A   Clear
11:55 PM 34.0 °F 26.6 °F 22.8 °F 64% 29.90 in 10.0 mi SSW 9.2 mph - N/A   Clear